FW4672 Weather Reports


Display with metric or nautical units.
time (UTC)temp
F
wind
direction
speed
MPH
gust
MPH
rain 1hr
in
rain 24hr
in
rain mn
in
humidity
%
barometer
mb
20260510171206 64 324 0.0 0.0 0.00 0.00 0.00 84 1032.6
20260510170210 64 318 0.0 0.0 0.00 0.00 0.00 84 1032.6
20260510164307 63 315 0.0 0.0 0.00 0.00 0.00 85 1032.5
20260510163309 63 330 0.0 0.0 0.00 0.00 0.00 86 1032.4
20260510162308 62 320 0.0 0.0 0.00 0.00 0.00 86 1032.4
20260510155308 62 337 0.0 0.0 0.00 0.00 0.00 87 1032.2
20260510154308 62 337 0.0 0.0 0.00 0.00 0.00 87 1032.1
20260510153407 61 337 0.0 0.0 0.00 0.00 0.00 87 1032.2
20260510152407 61 316 0.0 0.0 0.00 0.00 0.00 88 1032.1
20260510151406 61 327 0.0 0.0 0.00 0.00 0.00 88 1032.1
20260510150407 61 332 0.0 0.0 0.00 0.00 0.00 87 1032.0
20260510145408 61 360 0.0 0.0 0.00 0.00 0.00 87 1032.0
20260510144506 61 351 0.0 0.0 0.00 0.00 0.00 87 1031.9
20260510143508 60 337 0.0 0.0 0.00 0.00 0.00 89 1032.0
20260510142606 60 180 0.0 0.0 0.00 0.00 0.00 89 1031.9
20260510141608 60 180 0.0 0.0 0.00 0.00 0.00 89 1031.8
20260510135706 60 186 0.0 0.0 0.00 0.00 0.00 88 1031.6
20260510134805 60 180 0.0 0.0 0.00 0.00 0.00 89 1031.6
20260510133807 60 309 0.0 0.0 0.00 0.00 0.00 88 1031.6
20260510132808 60 337 0.0 0.0 0.00 0.00 0.00 88 1031.5
20260510131810 60 337 0.0 0.0 0.00 0.00 0.00 89 1031.5
20260510130907 60 337 0.0 0.0 0.00 0.00 0.00 89 1031.3
20260510125907 60 337 0.0 0.0 0.00 0.00 0.00 89 1031.3
20260510124907 60 180 0.0 0.0 0.00 0.00 0.00 89 1031.3
20260510123931 0 0 0.0 0.0 0.00 0.00 0.00 100
20260510122926 60 315 0.0 0.0 0.00 0.00 0.00 88 1031.3
20260510121937 60 180 0.0 0.0 0.00 0.00 0.00 89 1031.2
20260510121023 60 180 0.0 0.0 0.00 0.00 0.00 88 1031.3
20260510120926 60 180 0.0 0.0 0.00 0.00 0.00 89 1031.4
20260510115926 60 180 0.0 0.0 0.00 0.00 0.00 89 1031.3
20260510114027 60 180 0.0 0.0 0.00 0.00 0.00 89 1031.2
20260510113026 60 180 0.0 0.0 0.00 0.00 0.00 88 1031.3
20260510111124 60 180 0.0 0.0 0.00 0.00 0.00 90 1031.3
20260510110126 60 180 0.0 0.0 0.00 0.00 0.00 88 1031.5
20260510105224 60 180 0.0 0.0 0.00 0.00 0.00 90 1031.5
20260510104225 60 320 0.0 0.0 0.00 0.00 0.00 89 1031.4
20260510103225 60 180 0.0 0.0 0.00 0.00 0.00 89 1031.4
20260510102226 60 180 0.0 0.0 0.00 0.00 0.00 89 1031.5
20260510101225 60 180 0.0 0.0 0.00 0.00 0.00 90 1031.3
20260510100324 60 180 0.0 0.0 0.00 0.00 0.00 89 1031.5
20260510095424 60 180 0.0 0.0 0.00 0.00 0.00 89 1031.3
20260510094425 60 180 0.0 0.0 0.00 0.00 0.00 90 1031.5
20260510093425 60 180 0.0 0.0 0.00 0.00 0.00 89 1031.6
20260510092525 60 337 0.0 0.0 0.00 0.00 0.00 88 1031.6
20260510090525 60 180 0.0 0.0 0.00 0.00 0.00 89 1031.5
20260510085526 60 180 0.0 0.0 0.00 0.00 0.00 89 1031.7
20260510084526 60 337 0.0 0.0 0.00 0.00 0.00 88 1031.6
20260510083525 60 180 0.0 0.0 0.00 0.00 0.00 87 1031.7
20260510082525 61 180 0.0 0.0 0.00 0.00 0.00 88 1031.7
20260510081526 61 180 0.0 0.0 0.00 0.00 0.00 88 1031.8
20260510080526 61 180 0.0 0.0 0.00 0.00 0.00 87 1031.9
20260510075528 61 180 0.0 0.0 0.00 0.00 0.00 88 1032.0
20260510074526 61 180 0.0 0.0 0.00 0.00 0.00 88 1032.0
20260510072525 61 180 0.0 0.0 0.00 0.00 0.00 87 1032.1
20260510071624 61 180 0.0 0.0 0.00 0.00 0.00 87 1032.2
20260510070625 61 180 0.0 0.0 0.00 0.00 0.00 87 1032.1
20260510065707 61 315 0.0 0.0 0.00 0.00 0.00 86 1032.3
20260510064709 61 337 0.0 0.0 0.00 0.00 0.00 87 1032.3
20260510063708 61 258 0.0 0.0 0.00 0.00 0.00 86 1032.3
20260510062707 61 337 0.0 0.0 0.00 0.00 0.00 86 1032.4
20260510061708 61 298 0.0 0.0 0.00 0.00 0.00 86 1032.3
20260510060708 61 183 0.0 0.0 0.00 0.00 0.00 87 1032.4
20260510055808 61 332 0.0 0.0 0.00 0.00 0.00 87 1032.3
20260510054808 61 180 0.0 0.0 0.00 0.00 0.00 87 1032.3
20260510053810 61 337 0.0 0.0 0.00 0.00 0.00 86 1032.3
20260510052906 0 0 0.0 0.0 0.00 0.00 0.00 100
20260510051932 61 180 0.0 0.0 0.00 0.00 0.00 86 1032.3
20260510051031 61 180 0.0 0.0 0.00 0.00 0.00 87 1032.3
20260510050032 61 180 0.0 0.0 0.00 0.00 0.00 87 1032.3
20260510045032 62 180 0.0 0.0 0.00 0.00 0.00 86 1032.3
20260510044031 62 180 0.0 0.0 0.00 0.00 0.00 86 1032.1
20260510041229 61 337 0.0 0.0 0.00 0.00 0.00 86 1032.1
20260510040230 61 315 0.0 0.0 0.00 0.00 0.00 86 1032.0
20260510035231 61 337 0.0 0.0 0.00 0.00 0.00 87 1031.9
20260510034232 61 315 0.0 0.0 0.00 0.00 0.00 86 1031.9
20260510033232 61 317 0.0 0.0 0.00 0.00 0.00 87 1031.8
20260510032329 61 315 0.0 0.0 0.00 0.00 0.00 87 1031.6
20260510031330 61 315 0.0 0.0 0.00 0.00 0.00 86 1031.5
20260510030332 61 315 0.0 0.0 0.00 0.00 0.00 86 1031.2
20260510025332 61 326 0.0 0.0 0.00 0.00 0.00 85 1031.1
20260510024330 61 337 0.0 0.0 0.00 0.00 0.00 85 1031.2
20260510023333 62 313 0.0 0.0 0.00 0.00 0.00 85 1031.0
20260510022331 62 316 0.0 0.0 0.00 0.00 0.00 83 1031.0
20260510021331 62 337 0.0 0.0 0.00 0.00 0.00 83 1031.0
20260510020429 62 328 0.0 0.0 0.00 0.00 0.00 83 1031.0
20260510014432 64 332 0.0 0.0 0.00 0.00 0.00 81 1030.9
20260510012429 66 335 0.0 0.0 0.00 0.00 0.00 78 1030.8
20260510010432 67 322 0.0 0.0 0.00 0.00 0.00 77 1030.8
20260510005530 67 335 0.0 0.0 0.00 0.00 0.00 76 1030.9
20260510003530 68 320 0.0 0.0 0.00 0.00 0.00 76 1031.0
20260510002531 69 316 0.0 0.0 0.00 0.00 0.00 75 1030.8
20260510001532 69 333 0.0 0.0 0.00 0.00 0.00 75 1030.8
20260510000533 69 320 0.0 0.0 0.00 0.00 0.00 76 1030.7
20260509235529 69 323 0.0 0.0 0.00 0.00 0.00 75 1030.5
20260509234531 68 332 0.0 0.0 0.00 0.00 0.00 76 1030.5
20260509233531 69 300 0.0 0.0 0.00 0.00 0.00 76 1030.7
20260509232530 68 335 0.0 0.0 0.00 0.00 0.00 78 1030.6
20260509231531 68 337 0.0 0.0 0.00 0.00 0.00 78 1030.7
20260509230531 68 333 0.0 0.0 0.00 0.00 0.00 77 1030.8
20260509223529 68 273 0.0 0.0 0.00 0.00 0.00 79 1031.0
20260509222531 68 291 0.0 0.0 0.00 0.00 0.00 79 1031.0
20260509221532 68 318 0.0 0.0 0.00 0.00 0.00 79 1031.0
20260509215532 68 316 0.0 0.0 0.00 0.00 0.00 80 1031.2
20260509213632 68 244 0.0 0.0 0.00 0.00 0.00 81 1031.3
20260509212631 68 277 0.0 0.0 0.00 0.00 0.00 81 1031.4
20260509211631 68 309 0.0 0.0 0.00 0.00 0.00 82 1031.7
20260509211531 68 309 0.0 0.0 0.00 0.00 0.00 81 1031.7
20260509210530 67 314 0.0 0.0 0.00 0.00 0.00 82 1031.6
20260509205531 68 311 0.0 0.0 0.00 0.00 0.00 81 1031.8
20260509204629 68 291 0.0 0.0 0.00 0.00 0.00 80 1031.9
20260509203630 68 308 0.0 0.0 0.00 0.00 0.00 81 1032.0
20260509202630 68 287 0.0 0.0 0.00 0.00 0.00 82 1032.0
20260509201630 67 308 0.0 0.0 0.00 0.00 0.00 82 1032.1
20260509200729 67 204 0.0 0.0 0.00 0.00 0.00 80 1032.2
20260509195732 67 300 0.0 0.0 0.00 0.00 0.00 82 1032.1
20260509194731 67 317 0.0 0.0 0.00 0.00 0.00 83 1032.1
20260509193732 67 308 0.0 0.0 0.00 0.00 0.00 83 1032.1
20260509192830 67 290 0.0 0.0 0.00 0.00 0.00 83 1032.2
20260509191830 67 193 0.0 0.0 0.00 0.00 0.00 83 1032.1
20260509185832 67 247 0.0 0.0 0.00 0.00 0.00 83 1032.1
20260509184832 66 255 0.0 0.0 0.00 0.00 0.00 83 1032.3
20260509183829 66 311 0.0 0.0 0.00 0.00 0.00 82 1032.2
20260509182831 65 330 0.0 0.0 0.00 0.00 0.00 82 1032.3
20260509180832 65 326 0.0 0.0 0.00 0.00 0.00 82 1032.4
20260509175829 64 328 0.0 0.0 0.00 0.00 0.00 84 1032.5
20260509173930 64 319 0.0 0.0 0.00 0.00 0.00 85 1032.6